STARLINK-31865, 59791

Orbit data source: Space-Track

STARLINK-31865, 59791 is a payload satellite owned by SpaceX/Seattle (US) in LEO that was launched on Sat, 18 May 2024 UTC via an FALCON 9 launch vehicle from the Air Force Eastern Test Range (AFETR). Payloads include a variety of satellites, spacecraft, and rockets equipped with specific instruments for various scientific and technological missions. These include communications satellites like Starlink; space stations such as the ISS; scientific satellites like the Hubble; Earth observation satellites from companies like Planet Labs, Umbra, and HawkEye 360; GPS; miniature CubeSats for education and research; and military/defense satellites.

Loading next visibility...
STARLINK-31865 details
Identifier
59791, 2024-093K
Orbit
LEO
Last TLE update4 hours ago
Origin
Flag of USSpaceX/Seattle (US)
ManufacturerSpaceX/Seattle
MissionOperational spacecraft
Bus & MotorSTARLINK V2M, Unknown motor
Mass730 kg wet, ~700 kg dry
Launch date (UTC)
2024-05-18 (8 months ago)
Launch vehicle
FALCON 9
Launch site
Air Force Eastern Test Range (AFETR)
Object type
Payload
Rocket body
Debris
Shape & HBRUnknown
Radar Cross SectionLarge (>1 m²)

Expand to show TLE details & history

TLE from 4 hours ago
0 STARLINK-31865
1 59791U 24093K   25015.12841922  .00011008  00000-0  27032-3 0  9998
2 59791  43.0012  57.7558 0002199 275.8223  84.2383 15.40708705 38624
Epoch: 2025-01-15T03:04Z
Definitive object data (Epoch: 2025-01-15T03:04:55.42Z)
Latitude-0.00001°
Longitude-103.30034°
Altitude443.64 km
Speed7.648 km/s
True Right ascension03h 51m 01s
True Declination0° 00' 00"
Sunlit
Object was in full shadow at TLE epoch
Visualization TLE readout
Latitude-42.09946°
Longitude150.16238°
Altitude455.484 km
Speed7.64 km/s
Apparent Right ascension20h 21m 56s
Apparent Declination-41° 00' 33"
Sunlit
Object is in daylight
Visualization observer readout
Local Sidereal Time07:58:10
Azimuth254.494° W
Elevation-85.349°
Doppler factor1
Orbital elements
Apogee altitude447.473 km
Perigee altitude444.472 km
Semi-major axis6,824.11 km
Eccentricity0.0002199
Inclination43.0012°
RAAN57.7558°
Arg. of periapsis275.8223°
True anomaly84.26337°
Mean anomaly84.2383°
Eccentric anomaly84.25084°
Mean motion3.85012 °/min
BSTAR0.00027032
Orbital period93.5 mins
Loading maneuver chart data...
Loading historical data...
Loading historical data...
Loading historical data...
Loading historical data...
Loading historical data...
Loading historical data...
Loading historical data...

STARLINK-31865 Visibility forecast

Observer location: undefined°, undefined

Span
Click to sort rows by Start time (UTC) header in descending order
Start Az.
Max El. time (UTC)
Max El. Az.
Max El.
End time (UTC)
End Az.
6 mins2025-01-15 08:02:38.773Z270.771° WNW2025-01-15 08:05:38.773Z23.236° NE39.517°2025-01-15 08:08:38.773Z70.264° E
5 mins2025-01-15 09:41:38.773Z297.427° NW2025-01-15 09:43:38.773Z11.251° NNE38.728°2025-01-15 09:46:38.773Z84.005° E
5 mins2025-01-15 11:19:38.773Z277.8° WNW2025-01-15 11:21:38.773Z210.966° SW40.639°2025-01-15 11:24:38.773Z125.832° SE
4 mins2025-01-16 05:45:38.773Z191.754° SSW2025-01-16 05:46:38.773Z160.388° S28.803°2025-01-16 05:49:38.773Z87.615° E
|